N2PUI Weather Reports


time (UTC)temp
F
wind
direction
speed
knots
gust
knots
rain 1hr
in
rain 24hr
in
rain mn
in
humidity
%
barometer
mb
20260505230828 63 191 0.0 0.9 0.07 0.10 0.10 83 1007.6
20260505230325 63 191 0.0 0.0 0.00 0.09 0.09 82 1007.3
20260505225821 64 155 0.9 0.9 0.00 0.09 0.09 81 1007.4
20260505225319 64 205 1.7 1.7 0.00 0.09 0.09 80 1007.6
20260505224814 64 173 0.9 1.7 0.00 0.09 0.09 80 1007.8
20260505224312 64 163 1.7 4.3 0.00 0.09 0.09 80 1008.0
20260505223808 64 161 0.0 0.0 0.05 0.09 0.09 81 1007.9
20260505223306 65 160 0.0 0.0 0.05 0.09 0.09 81 1007.9
20260505222801 65 160 0.0 0.0 0.00 0.08 0.08 79 1007.5
20260505222257 65 160 0.0 0.9 0.00 0.08 0.08 78 1007.5
20260505221755 66 160 0.9 0.9 0.00 0.08 0.08 78 1007.3
20260505221251 65 134 1.7 1.7 0.00 0.08 0.08 77 1006.8
20260505220748 66 160 0.0 0.0 0.00 0.08 0.08 77 1007.4
20260505220245 66 160 0.0 0.0 0.00 0.08 0.08 77 1006.8
20260505215744 66 160 0.9 1.7 0.00 0.08 0.08 77 1006.9
20260505215241 66 160 0.0 0.0 0.00 0.08 0.08 76 1007.2
20260505214739 66 160 0.0 0.0 0.00 0.08 0.08 77 1006.9
20260505214236 66 160 0.0 0.9 0.00 0.08 0.08 77 1006.8
20260505213733 65 161 0.9 0.9 0.00 0.08 0.08 76 1006.8
20260505213230 65 146 0.9 0.9 0.00 0.08 0.08 79 1006.7
20260505212726 64 133 0.9 0.9 0.00 0.08 0.08 81 1006.4
20260505212224 63 145 0.0 0.9 0.00 0.08 0.08 82 1006.4
20260505211721 62 131 3.5 4.3 0.00 0.08 0.08 83 1006.8
20260505211218 61 134 2.6 2.6 0.00 0.08 0.08 85 1006.7
20260505210714 62 164 0.9 1.7 0.00 0.08 0.08 88 1006.7
20260505210211 61 135 2.6 2.6 0.00 0.08 0.08 88 1006.4
20260505205708 61 163 2.6 2.6 0.00 0.08 0.08 88 1006.7
20260505205207 61 157 0.9 0.9 0.00 0.08 0.08 89 1006.6
20260505204703 61 155 0.9 0.9 0.00 0.08 0.08 89 1006.7
20260505204200 60 155 0.9 0.9 0.00 0.08 0.08 89 1006.8
20260505203652 60 155 0.9 0.9 0.00 0.08 0.08 88 1006.9
20260505203148 60 138 0.0 0.0 0.00 0.08 0.08 88 1007.0
20260505202644 60 291 3.5 4.3 0.00 0.08 0.08 88 1007.1
20260505202141 60 18 1.7 1.7 0.00 0.08 0.08 87 1007.3
20260505201637 60 318 2.6 2.6 0.00 0.08 0.08 87 1007.6
20260505201135 60 328 3.5 5.2 0.07 0.08 0.08 87 1007.7
20260505200633 60 273 5.2 7.8 0.19 0.08 0.08 86 1007.9
20260505200130 61 259 4.3 6.1 0.19 0.07 0.07 85 1008.1
20260505195626 61 267 6.1 9.6 0.07 0.05 0.05 84 1008.6
20260505195123 61 187 7.0 8.7 0.05 0.04 0.04 83 1008.3
20260505194620 62 314 11.3 13.9 0.17 0.04 0.04 82 1008.1
20260505194116 64 296 5.2 7.0 0.12 0.03 0.03 77 1007.6
20260505193613 70 256 7.8 11.3 0.00 0.01 0.01 62 1007.0
20260505193110 73 240 4.3 5.2 0.00 0.01 0.01 50 1006.1
20260505192609 74 226 3.5 5.2 0.00 0.01 0.01 45 1005.8
20260505192106 75 234 3.5 5.2 0.00 0.01 0.01 43 1005.5
20260505191604 75 190 0.9 1.7 0.00 0.01 0.01 45 1005.5
20260505191102 75 169 1.7 2.6 0.00 0.01 0.01 46 1005.4
20260505190556 75 184 2.6 2.6 0.00 0.01 0.01 44 1005.4
20260505190052 75 243 6.1 11.3 0.00 0.01 0.01 45 1005.3
20260505185549 75 226 2.6 2.6 0.00 0.01 0.01 47 1005.4
20260505185046 75 210 7.8 11.3 0.00 0.01 0.01 46 1005.4
20260505184542 75 108 3.5 5.2 0.00 0.01 0.01 48 1005.1
20260505184039 76 220 4.3 5.2 0.00 0.01 0.01 49 1005.3
20260505183536 75 148 10.4 14.8 0.00 0.01 0.01 48 1005.5
20260505183033 75 187 4.3 5.2 0.00 0.01 0.01 48 1005.8
20260505182530 75 167 7.8 9.6 0.00 0.01 0.01 50 1005.8
20260505182026 74 238 6.1 8.7 0.00 0.01 0.01 51 1005.7
20260505181523 70 182 1.7 1.7 0.00 0.01 0.01 63 1005.9
20260505181021 69 191 0.9 0.9 0.00 0.01 0.01 69 1005.9
20260505180516 67 196 0.9 1.7 0.00 0.01 0.01 74 1006.0
20260505180015 66 185 0.9 0.9 0.00 0.01 0.01 75 1006.7
20260505175509 66 177 0.9 0.9 0.00 0.01 0.01 78 1006.6
20260505175007 65 222 3.5 4.3 0.07 0.01 0.01 76 1006.8
20260505174504 65 161 0.0 0.9 0.07 0.01 0.01 75 1007.0
20260505173959 66 174 0.9 0.9 0.00 0.00 0.00 71 1007.2
20260505173455 71 220 9.6 11.3 0.00 0.00 0.00 64 1006.8
20260505172953 73 163 0.9 0.9 0.00 0.00 0.00 55 1006.6
20260505172451 74 269 2.6 4.3 0.00 0.00 0.00 48 1006.4
20260505171951 74 157 0.9 1.7 0.00 0.00 0.00 48 1006.6
20260505171447 74 222 5.2 7.8 0.00 0.00 0.00 48 1006.6
20260505170944 75 180 1.7 1.7 0.00 0.00 0.00 49 1006.4
20260505170441 75 167 4.3 6.1 0.00 0.00 0.00 46 1006.3
20260505165936 76 210 5.2 6.1 0.00 0.00 0.00 46 1006.3
20260505165432 76 262 2.6 5.2 0.00 0.00 0.00 45 1005.9
20260505164922 76 178 2.6 2.6 0.00 0.00 0.00 45 1005.9
20260505164419 76 206 1.7 1.7 0.00 0.00 0.00 47 1006.1
20260505163917 76 184 1.7 1.7 0.00 0.00 0.00 43 1006.2
20260505163416 76 299 3.5 4.3 0.00 0.00 0.00 43 1006.1
20260505162914 77 194 4.3 5.2 0.00 0.00 0.00 45 1006.1
20260505162410 76 230 4.3 5.2 0.00 0.00 0.00 45 1006.3
20260505161907 75 235 6.1 7.8 0.00 0.00 0.00 45 1006.6
20260505161404 75 212 5.2 6.1 0.00 0.00 0.00 46 1006.4
20260505160901 75 191 2.6 4.3 0.00 0.00 0.00 46 1006.4
20260505160359 75 321 4.3 6.1 0.00 0.00 0.00 46 1006.7
20260505153338 77 226 7.0 7.8 0.00 0.00 0.00 45 1006.8
20260505152834 75 164 0.9 1.7 0.00 0.00 0.00 46 1006.8
20260505152331 76 171 4.3 7.8 0.00 0.00 0.00 45 1006.7
20260505151826 74 179 2.6 2.6 0.00 0.00 0.00 49 1007.0
20260505151323 74 224 9.6 12.2 0.00 0.00 0.00 47 1006.7
20260505150820 75 141 11.3 14.8 0.00 0.00 0.00 45 1006.3
20260505150317 75 191 3.5 4.3 0.00 0.00 0.00 47 1006.4
20260505140241 71 184 4.3 5.2 0.00 0.00 0.00 54 1007.3
20260505130205 66 269 2.6 6.1 0.00 0.00 0.00 59 1007.7
20260505124655 64 158 0.0 0.9 0.00 0.00 0.00 64 1007.9
20260505124151 63 162 1.7 2.6 0.00 0.00 0.00 64 1008.1
20260505123648 63 204 5.2 6.1 0.00 0.00 0.00 63 1008.1
20260505123144 63 183 4.3 6.1 0.00 0.00 0.00 63 1008.2
20260505122640 63 219 2.6 2.6 0.00 0.00 0.00 64 1008.2
20260505122138 63 187 0.0 0.9 0.00 0.00 0.00 63 1008.1
20260505121628 63 230 3.5 4.3 0.00 0.00 0.00 62 1008.3
20260505121120 63 211 0.9 1.7 0.00 0.00 0.00 63 1008.0
20260505120615 63 193 1.7 1.7 0.00 0.00 0.00 63 1007.9
20260505120111 63 131 2.6 2.6 0.00 0.00 0.00 62 1007.8
20260505115606 63 171 3.5 5.2 0.00 0.00 0.00 62 1007.8
20260505115104 63 186 0.9 0.9 0.00 0.00 0.00 63 1008.0
20260505114601 62 168 0.0 0.9 0.00 0.00 0.00 63 1008.0
20260505114057 62 148 2.6 4.3 0.00 0.00 0.00 63 1007.9
20260505113554 62 176 2.6 2.6 0.00 0.00 0.00 62 1007.9
20260505113050 62 111 2.6 4.3 0.00 0.00 0.00 63 1007.8
20260505112546 62 163 4.3 6.1 0.00 0.00 0.00 63 1007.9
20260505112044 62 140 3.5 5.2 0.00 0.00 0.00 64 1008.0
20260505111538 61 138 2.6 4.3 0.00 0.00 0.00 64 1008.0
20260505111035 61 167 4.3 5.2 0.00 0.00 0.00 65 1008.0
20260505110532 61 108 4.3 8.7 0.00 0.00 0.00 65 1008.1
20260505102004 61 189 2.6 4.3 0.00 0.00 0.00 60 1007.6
20260505101503 61 232 1.7 1.7 0.00 0.00 0.00 60 1007.6
20260505100958 61 195 0.9 0.9 0.00 0.00 0.00 60 1007.5
20260505100455 61 204 2.6 4.3 0.00 0.00 0.00 60 1007.6
20260505095952 61 232 2.6 2.6 0.00 0.00 0.00 60 1007.5
20260505095448 62 194 0.9 0.9 0.00 0.00 0.00 59 1007.3
20260505094944 61 191 0.9 0.9 0.00 0.00 0.00 59 1007.2
20260505094441 61 184 0.0 0.9 0.00 0.00 0.00 60 1007.1
20260505093937 61 151 0.9 0.9 0.00 0.00 0.00 59 1007.1
20260505093434 61 180 0.9 0.9 0.00 0.00 0.00 60 1007.1
20260505092932 61 191 1.7 2.6 0.00 0.00 0.00 59 1006.9
20260505092429 62 201 1.7 1.7 0.00 0.00 0.00 59 1006.9
20260505091926 62 199 3.5 4.3 0.00 0.00 0.00 58 1007.1
20260505091424 61 177 0.9 1.7 0.00 0.00 0.00 59 1007.1
20260505090922 61 203 1.7 2.6 0.00 0.00 0.00 59 1006.9
20260505090420 61 199 1.7 1.7 0.00 0.00 0.00 59 1006.9
20260505085917 60 176 0.0 0.9 0.00 0.00 0.00 60 1006.9
20260505085415 60 174 0.0 0.9 0.00 0.00 0.00 60 1007.1
20260505084913 60 163 1.7 1.7 0.00 0.00 0.00 61 1006.9
20260505084411 60 156 0.0 0.9 0.00 0.00 0.00 60 1006.8
20260505083909 60 140 0.0 0.0 0.00 0.00 0.00 60 1006.6
20260505083406 60 177 2.6 2.6 0.00 0.00 0.00 59 1006.8
20260505082902 60 124 0.0 1.7 0.00 0.00 0.00 59 1006.7
20260505082357 60 126 1.7 1.7 0.00 0.00 0.00 59 1006.7
20260505081855 61 162 1.7 1.7 0.00 0.00 0.00 59 1006.8
20260505081351 61 120 2.6 2.6 0.00 0.00 0.00 58 1006.9
20260505080848 62 145 0.9 1.7 0.00 0.00 0.00 57 1006.9
20260505080344 61 170 1.7 1.7 0.00 0.00 0.00 57 1007.1
20260505075840 62 155 0.9 0.9 0.00 0.00 0.00 57 1006.8
20260505075337 62 124 2.6 2.6 0.00 0.00 0.00 57 1006.9
20260505074834 62 147 2.6 2.6 0.00 0.00 0.00 57 1007.0
20260505074331 62 164 1.7 1.7 0.00 0.00 0.00 56 1006.8
20260505073828 62 182 2.6 2.6 0.00 0.00 0.00 56 1006.9
20260505073326 62 153 1.7 2.6 0.00 0.00 0.00 56 1006.9
20260505072823 62 138 2.6 2.6 0.00 0.00 0.00 56 1007.0
20260505072319 62 154 0.9 0.9 0.00 0.00 0.00 56 1006.9
20260505071815 62 191 4.3 5.2 0.00 0.00 0.00 55 1007.0
20260505071312 61 164 0.0 0.0 0.00 0.00 0.00 57 1007.1
20260505070810 61 166 1.7 1.7 0.00 0.00 0.00 56 1007.0
20260505070306 61 156 0.9 0.9 0.00 0.00 0.00 57 1007.1
20260505065801 61 154 0.9 0.9 0.00 0.00 0.00 56 1006.9
20260505065258 61 154 0.0 0.0 0.00 0.00 0.00 57 1007.2
20260505064755 60 146 0.0 0.0 0.00 0.00 0.00 57 1007.2
20260505064252 60 172 0.0 0.9 0.00 0.00 0.00 57 1007.1
20260505063750 60 152 0.0 0.0 0.00 0.00 0.00 56 1007.2
20260505063247 60 153 0.9 0.9 0.00 0.00 0.00 57 1007.0
20260505062743 60 154 0.0 0.9 0.00 0.00 0.00 57 1007.0
20260505062241 60 194 3.5 5.2 0.00 0.00 0.00 56 1007.1
20260505061737 60 132 2.6 2.6 0.00 0.00 0.00 57 1007.0
20260505061235 60 115 0.9 1.7 0.00 0.00 0.00 58 1006.9
20260505060732 60 161 1.7 1.7 0.00 0.00 0.00 57 1007.1
20260505060230 60 148 0.9 1.7 0.00 0.00 0.00 57 1007.0
20260505055724 60 134 4.3 5.2 0.00 0.00 0.00 56 1006.9
20260505055221 60 125 2.6 4.3 0.00 0.00 0.00 56 1007.3
20260505054719 60 128 2.6 2.6 0.00 0.00 0.00 56 1007.1
20260505054216 60 128 1.7 1.7 0.00 0.00 0.00 56 1007.3
20260505053714 60 123 2.6 2.6 0.00 0.00 0.00 56 1006.9
20260505053210 61 126 3.5 4.3 0.00 0.00 0.00 55 1007.1
20260505052708 61 126 2.6 2.6 0.00 0.00 0.00 55 1007.0
20260505052204 61 137 2.6 4.3 0.00 0.00 0.00 54 1007.0
20260505051702 61 122 1.7 1.7 0.00 0.00 0.00 55 1007.3
20260505051200 61 122 2.6 2.6 0.00 0.00 0.00 54 1007.3
20260505050657 62 127 1.7 1.7 0.00 0.00 0.00 54 1007.2
20260505050155 62 133 2.6 4.3 0.00 0.00 0.00 53 1007.3
20260505041625 63 114 2.6 2.6 0.00 0.00 0.00 51 1007.0
20260505041123 63 158 1.7 1.7 0.00 0.00 0.00 51 1006.9
20260505040619 63 195 3.5 4.3 0.00 0.00 0.00 51 1007.1
20260505040117 63 188 6.1 7.0 0.00 0.00 0.00 51 1007.1
20260505035613 63 178 2.6 2.6 0.00 0.00 0.00 50 1007.1
20260505035109 63 140 2.6 2.6 0.00 0.00 0.00 50 1007.1
20260505034606 63 153 1.7 1.7 0.00 0.00 0.00 50 1007.1
20260505034103 63 146 2.6 4.3 0.00 0.00 0.00 50 1007.0
20260505033559 64 165 0.9 1.7 0.00 0.00 0.00 50 1007.2
20260505033058 64 194 2.6 4.3 0.00 0.00 0.00 49 1007.1
20260505032555 63 160 2.6 5.2 0.00 0.00 0.00 50 1006.9
20260505032051 63 163 1.7 1.7 0.00 0.00 0.00 50 1007.2
20260505031549 64 155 1.7 1.7 0.00 0.00 0.00 49 1007.2
20260505031045 64 180 0.9 0.9 0.00 0.00 0.00 49 1007.0
20260505030543 64 144 3.5 5.2 0.00 0.00 0.00 49 1007.1
20260505030038 64 203 3.5 5.2 0.00 0.00 0.00 48 1007.1
20260505025534 63 186 0.9 0.9 0.00 0.00 0.00 49 1007.1
20260505025033 64 140 0.0 0.9 0.00 0.00 0.00 49 1007.3
20260505024530 64 162 3.5 4.3 0.00 0.00 0.00 48 1007.4
20260505024027 64 157 0.9 0.9 0.00 0.00 0.00 48 1007.2
20260505023524 64 165 3.5 6.1 0.00 0.00 0.00 48 1007.1
20260505023022 64 154 1.7 1.7 0.00 0.00 0.00 48 1007.2
20260505022519 64 170 2.6 2.6 0.00 0.00 0.00 48 1007.5
20260505022016 64 173 4.3 5.2 0.00 0.00 0.00 47 1007.2
20260505021513 64 137 2.6 2.6 0.00 0.00 0.00 47 1007.0
20260505021009 64 170 3.5 5.2 0.00 0.00 0.00 47 1007.3
20260505020503 64 162 1.7 1.7 0.00 0.00 0.00 47 1007.2
20260505020000 64 97 2.6 5.2 0.00 0.00 0.00 47 1007.2
20260505015458 64 165 1.7 1.7 0.00 0.00 0.00 47 1007.2
20260505014955 64 164 0.0 0.9 0.00 0.00 0.00 47 1007.4
20260505014452 65 157 2.6 4.3 0.00 0.00 0.00 46 1007.2
20260505013949 64 140 1.7 1.7 0.00 0.00 0.00 46 1007.1
20260505013446 65 129 1.7 1.7 0.00 0.00 0.00 46 1007.0
20260505012943 65 152 2.6 2.6 0.00 0.00 0.00 45 1007.3
20260505012441 65 182 1.7 1.7 0.00 0.00 0.00 46 1007.0
20260505011938 65 137 2.6 2.6 0.00 0.00 0.00 45 1007.1
20260505011433 65 144 1.7 2.6 0.00 0.00 0.00 46 1007.2
20260505010930 65 121 2.6 2.6 0.00 0.00 0.00 45 1006.9
20260505010426 65 145 4.3 7.0 0.00 0.00 0.00 45 1006.9
20260505005922 66 108 1.7 1.7 0.00 0.00 0.00 45 1006.9
20260505005420 66 141 1.7 2.6 0.00 0.00 0.00 44 1006.7
20260505004917 66 172 3.5 5.2 0.00 0.00 0.00 44 1006.6
20260505004413 66 153 2.6 2.6 0.00 0.00 0.00 44 1006.9
20260505003910 66 117 2.6 2.6 0.00 0.00 0.00 44 1006.4
20260505003407 67 133 2.6 4.3 0.00 0.00 0.00 43 1006.7
20260505002904 67 191 4.3 6.1 0.00 0.00 0.00 42 1006.7
20260505002400 67 161 2.6 2.6 0.00 0.00 0.00 43 1006.4
20260505001859 67 177 4.3 6.1 0.00 0.00 0.00 42 1006.3
20260505001356 67 170 2.6 4.3 0.00 0.00 0.00 42 1006.3
20260505000853 67 163 1.7 1.7 0.00 0.00 0.00 42 1006.3
20260505000351 68 160 0.0 0.9 0.00 0.00 0.00 42 1006.4
20260504235847 68 175 5.2 7.8 0.00 0.00 0.00 41 1006.4
20260504235344 68 151 5.2 7.0 0.00 0.00 0.00 41 1006.4
20260504234840 68 168 1.7 2.6 0.00 0.00 0.00 41 1006.0
20260504234338 68 173 4.3 6.1 0.00 0.00 0.00 40 1006.3
20260504233835 68 147 1.7 1.7 0.00 0.00 0.00 41 1005.9
20260504233330 69 159 1.7 1.7 0.00 0.00 0.00 41 1005.8
20260504232827 69 144 4.3 5.2 0.00 0.00 0.00 39 1005.9
20260504232324 69 145 3.5 5.2 0.00 0.00 0.00 40 1005.8
20260504231821 69 174 4.3 5.2 0.00 0.00 0.00 39 1006.0
20260504231318 70 184 3.5 4.3 0.00 0.00 0.00 38 1005.8